Change the Weather History Date:

Monday, May 13, 2013

  Actual Average Record
Temperature  
Mean Temperature 50 °F -  
Max Temperature 65 °F 73 °F 87 °F (1998)
Min Temperature 35 °F 53 °F 35 °F (2013)
Degree Days  
Heating Degree Days 15    
Moisture  
Dew Point 35 °F    
Average Humidity 58    
Maximum Humidity 95    
Minimum Humidity 29    
Precipitation  
Precipitation 0.00 in - - ()
Sea Level Pressure  
Sea Level Pressure 30.18 in    
Wind  
Wind Speed 4 mph (West)    
Max Wind Speed 17 mph    
Max Gust Speed 23 mph    
Visibility 10 miles    
Events Rain    
Averages and records for this station are not official NWS values.
T = Trace of Precipitation, MM = Missing Value Source: NWS Daily Summary

Daily Weather History Graph

Daily Weather History Graph

Search for Another Location

Airport or City:

Trip Planner

Search our weather history database for the weather conditions in past years. The results will help you decide how hot, cold, wet, or windy it might be!

Date:

Astronomy

May. 13, 2013 Rise Set
Actual Time 6:35 AM EDT 8:45 PM EDT
Civil Twilight 6:05 AM EDT 9:15 PM EDT
Nautical Twilight 5:30 AM EDT 9:51 PM EDT
Astronomical Twilight 4:51 AM EDT 10:30 PM EDT
Moon 9:21 AM EDT (5/13) 11:54 PM EDT (5/13)
Length of Visible Light 15h 09m
Length of Day
14h 10m
Waxing Crescent, 12% of the Moon is Illuminated
May 13
Waxing Crescent
May 18
First Quarter
May 25
Full
May 31
Last Quarter
Jun 8
New

Hourly Weather History & Observations

Time (EDT) Temp. Dew Point Humidity Pressure Visibility Wind Dir Wind Speed Gust Speed Precip Events Conditions
12:58 AM 39.7 °F 35.6 °F 85% 30.18 in 10.0 mi Calm Calm - N/A   Clear
1:58 AM 38.5 °F 34.7 °F 86% 30.17 in 10.0 mi Calm Calm - N/A   Clear
2:58 AM 38.3 °F 36.3 °F 93% 30.16 in 10.0 mi Calm Calm - N/A   Clear
3:58 AM 36.7 °F 34.9 °F 93% 30.16 in 10.0 mi Calm Calm - N/A   Clear
4:58 AM 36.5 °F 35.2 °F 95% 30.17 in 10.0 mi Calm Calm - N/A   Clear
5:58 AM 35.1 °F 33.6 °F 94% 30.17 in 10.0 mi Calm Calm - N/A   Clear
6:58 AM 36.5 °F 35.2 °F 95% 30.19 in 10.0 mi Calm Calm - N/A   Clear
7:58 AM 40.5 °F 38.1 °F 91% 30.20 in 10.0 mi Calm Calm - N/A   Clear
8:58 AM 49.8 °F 38.7 °F 65% 30.22 in 10.0 mi WSW 8.1 mph - N/A   Clear
9:58 AM 55.9 °F 37.0 °F 49% 30.22 in 10.0 mi West 8.1 mph - N/A   Clear
10:58 AM 58.8 °F 33.1 °F 38% 30.23 in 10.0 mi West 10.4 mph - N/A   Clear
11:58 AM 60.1 °F 31.3 °F 34% 30.23 in 10.0 mi NW 6.9 mph 17.3 mph N/A   Clear
12:18 PM 60.8 °F 32.0 °F 34% 30.22 in 10.0 mi NW 13.8 mph - N/A   Clear
12:58 PM 61.2 °F 33.3 °F 35% 30.21 in 10.0 mi WSW 17.3 mph 23.0 mph N/A   Clear
12:59 PM 62.6 °F 33.8 °F 34% 30.21 in 10.0 mi West 16.1 mph 23.0 mph N/A   Clear
1:58 PM 62.2 °F 33.1 °F 34% 30.21 in 10.0 mi WSW 12.7 mph 19.6 mph N/A   Partly Cloudy
2:58 PM 64.4 °F 33.3 °F 31% 30.19 in 10.0 mi WSW 12.7 mph 23.0 mph N/A   Scattered Clouds
3:41 PM 64.4 °F 32.0 °F 30% 30.17 in 10.0 mi West 15.0 mph 18.4 mph N/A   Partly Cloudy
4:58 PM 65.5 °F 33.1 °F 30% 30.16 in 10.0 mi West 15.0 mph - N/A   Partly Cloudy
5:58 PM 64.0 °F 30.9 °F 29% 30.15 in 10.0 mi Variable 5.8 mph - N/A   Partly Cloudy
6:58 PM 63.5 °F 32.5 °F 31% 30.15 in 10.0 mi Variable 4.6 mph - N/A   Clear
7:58 PM 60.8 °F 34.0 °F 37% 30.14 in 10.0 mi West 6.9 mph - N/A   Clear
8:45 PM 55.4 °F 41.0 °F 58% 30.14 in 10.0 mi Calm Calm - N/A Rain Light Rain
8:53 PM 53.6 °F 39.2 °F 58% 30.15 in 10.0 mi Calm Calm - N/A   Clear
8:58 PM 54.5 °F 38.3 °F 54% 30.16 in 10.0 mi Calm Calm - 0.00 in   Clear
9:58 PM 51.3 °F 38.7 °F 62% 30.17 in 10.0 mi Calm Calm - N/A   Clear
10:58 PM 47.5 °F 39.9 °F 75% 30.19 in 10.0 mi Calm Calm - N/A   Clear
11:58 PM 47.3 °F 39.0 °F 73% 30.18 in 10.0 mi Calm Calm - N/A   Clear